CSN3000 ZBAA-ZGGG

Flight info

Callsign CSN3000
Flight time N/A
Altitude 36100
Route OMDEK W37 VIKEB V66 VESUX W45 IKAVO
Aircraft B773/H-V/N

Departure

Time 2026-05-04 01:18
Airport Beijing Capital International Airport (ZBAA)

Arrival

Time N/A
Airport Guangzhou Baiyun International Airport (ZGGG)
Time Latitude Longitude Altitude Speed Heading
2026-05-04 00:58 40.05344 116.60508 129 ft 0 kts 142°
2026-05-04 01:04 40.05354 116.60497 129 ft 2 kts 142°
2026-05-04 01:05 40.05367 116.60485 129 ft 2 kts 142°
2026-05-04 01:05 40.05380 116.60472 129 ft 2 kts 142°
2026-05-04 01:05 40.05393 116.60459 129 ft 2 kts 142°
2026-05-04 01:05 40.05406 116.60446 129 ft 2 kts 142°
2026-05-04 01:06 40.05408 116.60443 129 ft 0 kts 142°
2026-05-04 01:10 40.05412 116.60440 129 ft 1 kts 142°
2026-05-04 01:11 40.05420 116.60432 129 ft 0 kts 142°
2026-05-04 01:11 40.05422 116.60430 129 ft 2 kts 142°
2026-05-04 01:12 40.05434 116.60417 129 ft 2 kts 142°
2026-05-04 01:12 40.05448 116.60405 129 ft 2 kts 155°
2026-05-04 01:12 40.05463 116.60401 129 ft 2 kts 188°
2026-05-04 01:12 40.05477 116.60409 129 ft 1 kts 220°
2026-05-04 01:13 40.05480 116.60413 129 ft 0 kts 224°
2026-05-04 01:13 40.05469 116.60398 129 ft 11 kts 224°
2026-05-04 01:14 40.05435 116.60350 129 ft 1 kts 249°
2026-05-04 01:14 40.05434 116.60346 129 ft 2 kts 253°
2026-05-04 01:14 40.05430 116.60319 129 ft 1 kts 280°
2026-05-04 01:14 40.05467 116.60273 129 ft 15 kts 338°
2026-05-04 01:15 40.05508 116.60254 129 ft 9 kts 328°
2026-05-04 01:15 40.05530 116.60214 129 ft 0 kts 284°
2026-05-04 01:16 40.05532 116.60193 129 ft 2 kts 275°
2026-05-04 01:16 40.05532 116.60189 129 ft 2 kts 275°
2026-05-04 01:16 40.05550 116.60077 129 ft 18 kts 303°
2026-05-04 01:16 40.05624 116.60003 129 ft 11 kts 349°
2026-05-04 01:17 40.05683 116.59994 129 ft 33 kts 354°
2026-05-04 01:17 40.06258 116.59907 129 ft 131 kts 353°
2026-05-04 01:17 40.07446 116.59708 142 ft 206 kts 352°
2026-05-04 01:17 40.08983 116.59442 572 ft 242 kts 352°
2026-05-04 01:18 40.10769 116.59137 1312 ft 274 kts 352°
2026-05-04 01:18 40.12695 116.58874 2747 ft 273 kts 352°
2026-05-04 01:18 40.14524 116.58733 4384 ft 251 kts 353°
2026-05-04 01:18 40.16199 116.58531 5802 ft 235 kts 350°
2026-05-04 01:19 40.17819 116.58308 6767 ft 235 kts 353°
2026-05-04 01:19 40.19457 116.57907 7445 ft 246 kts 350°
2026-05-04 01:19 40.21174 116.57492 8115 ft 255 kts 352°
2026-05-04 01:19 40.22940 116.57254 8923 ft 261 kts 352°
2026-05-04 01:20 40.24715 116.56639 9854 ft 260 kts 336°
2026-05-04 01:20 40.26248 116.55430 10760 ft 265 kts 325°
2026-05-04 01:20 40.27722 116.53866 11320 ft 281 kts 321°
2026-05-04 01:20 40.29225 116.52108 11823 ft 299 kts 318°
2026-05-04 01:21 40.30651 116.49998 12191 ft 321 kts 306°
2026-05-04 01:21 40.31526 116.47197 12632 ft 345 kts 286°
2026-05-04 01:21 40.31711 116.45089 13038 ft 357 kts 276°
2026-05-04 01:21 40.31631 116.41781 13704 ft 368 kts 271°
2026-05-04 01:22 40.31524 116.38401 14454 ft 374 kts 273°
2026-05-04 01:22 40.31486 116.34971 15232 ft 379 kts 274°
2026-05-04 01:22 40.31493 116.31498 16021 ft 384 kts 275°
2026-05-04 01:22 40.31521 116.27978 16786 ft 389 kts 274°
2026-05-04 01:23 40.31498 116.24410 17550 ft 393 kts 273°
2026-05-04 01:23 40.31509 116.20821 18291 ft 397 kts 274°
2026-05-04 01:23 40.31496 116.17185 19040 ft 400 kts 274°
2026-05-04 01:23 40.31504 116.13536 19793 ft 402 kts 274°
2026-05-04 01:24 40.31516 116.09865 20510 ft 405 kts 274°
2026-05-04 01:24 40.31530 116.06156 21207 ft 407 kts 273°
2026-05-04 01:24 40.31379 116.02420 21795 ft 414 kts 264°
2026-05-04 01:24 40.30475 115.98793 22382 ft 427 kts 247°
2026-05-04 01:25 40.28729 115.95607 23050 ft 438 kts 231°
2026-05-04 01:25 40.26297 115.93125 23685 ft 449 kts 216°
2026-05-04 01:25 40.23538 115.91174 24226 ft 454 kts 212°
2026-05-04 01:25 40.20720 115.89261 24728 ft 458 kts 212°
2026-05-04 01:26 40.17878 115.87337 25259 ft 461 kts 212°
2026-05-04 01:26 40.15057 115.85402 25772 ft 464 kts 212°
2026-05-04 01:26 40.12162 115.83501 26267 ft 468 kts 211°
2026-05-04 01:26 40.09242 115.81571 26796 ft 469 kts 212°
2026-05-04 01:27 40.06354 115.79542 27264 ft 471 kts 214°
2026-05-04 01:27 40.03466 115.77451 27710 ft 475 kts 213°
2026-05-04 01:27 40.00568 115.75444 28151 ft 478 kts 212°
2026-05-04 01:27 39.97538 115.73481 28603 ft 481 kts 211°
2026-05-04 01:28 39.94586 115.71544 29024 ft 483 kts 211°
2026-05-04 01:28 39.91589 115.69533 29421 ft 484 kts 213°
2026-05-04 01:28 39.88606 115.67474 29788 ft 488 kts 210°
2026-05-04 01:28 39.85355 115.66064 30222 ft 497 kts 196°
2026-05-04 01:29 39.81894 115.65673 30808 ft 502 kts 183°
2026-05-04 01:29 39.78411 115.66280 31275 ft 509 kts 171°
2026-05-04 01:29 39.75005 115.67601 31679 ft 513 kts 164°
2026-05-04 01:29 39.71644 115.69162 32094 ft 513 kts 163°
2026-05-04 01:30 39.68286 115.70696 32519 ft 511 kts 165°
2026-05-04 01:30 39.64906 115.72155 32919 ft 510 kts 165°
2026-05-04 01:30 39.61564 115.73518 33308 ft 509 kts 166°
2026-05-04 01:30 39.58124 115.74866 33693 ft 509 kts 167°
2026-05-04 01:31 39.54782 115.76164 34057 ft 508 kts 167°
2026-05-04 01:31 39.51399 115.77482 34417 ft 507 kts 167°
2026-05-04 01:31 39.48016 115.78816 34761 ft 507 kts 166°
2026-05-04 01:31 39.44642 115.80154 35096 ft 507 kts 166°
2026-05-04 01:32 39.41271 115.81472 35413 ft 506 kts 167°
2026-05-04 01:32 39.37889 115.82783 35726 ft 506 kts 167°
2026-05-04 01:32 39.34527 115.84099 36061 ft 504 kts 167°
2026-05-04 01:33 39.27784 115.86677 36152 ft 505 kts 167°
2026-05-04 01:33 39.21054 115.89291 36153 ft 505 kts 166°
2026-05-04 01:34 39.14340 115.91906 36151 ft 504 kts 168°
2026-05-04 01:34 39.07658 115.94454 36153 ft 504 kts 168°
2026-05-04 01:35 39.00900 115.96892 36152 ft 504 kts 168°
2026-05-04 01:35 38.94128 115.99282 36152 ft 504 kts 168°
2026-05-04 01:36 38.87368 116.01654 36152 ft 504 kts 169°
2026-05-04 01:36 38.80600 116.03989 36151 ft 504 kts 169°
2026-05-04 01:37 38.73822 116.06299 36141 ft 504 kts 169°
2026-05-04 01:37 38.67039 116.08448 36137 ft 498 kts 177°
2026-05-04 01:37 38.63592 116.08617 36135 ft 494 kts 188°
2026-05-04 01:38 38.60227 116.07873 36138 ft 489 kts 200°
2026-05-04 01:38 38.53948 116.04742 36138 ft 481 kts 210°
2026-05-04 01:39 38.47839 116.01348 36135 ft 477 kts 207°
2026-05-04 01:39 38.41706 115.98225 36135 ft 478 kts 207°
2026-05-04 01:40 38.35521 115.95067 36134 ft 479 kts 207°
2026-05-04 01:40 38.29235 115.92183 36134 ft 482 kts 201°
2026-05-04 01:41 38.22604 115.90634 36132 ft 487 kts 192°
2026-05-04 01:41 38.15862 115.89577 36132 ft 489 kts 192°
2026-05-04 01:42 38.09086 115.88577 36131 ft 490 kts 191°
2026-05-04 01:42 38.02311 115.87605 36129 ft 490 kts 191°
2026-05-04 01:43 37.95564 115.86414 36101 ft 488 kts 193°
2026-05-04 01:43 37.88871 115.85430 36101 ft 486 kts 192°
2026-05-04 01:44 37.82162 115.84423 36095 ft 486 kts 193°
2026-05-04 01:44 37.75446 115.83142 36092 ft 488 kts 192°
2026-05-04 01:45 37.68858 115.81455 36093 ft 480 kts 204°
2026-05-04 01:45 37.59828 115.76246 36088 ft 473 kts 212°
2026-05-04 01:46 37.53929 115.72603 36085 ft 472 kts 211°
2026-05-04 01:46 37.50967 115.70803 35914 ft 472 kts 211°
2026-05-04 01:46 37.47993 115.69027 36086 ft 472 kts 210°
2026-05-04 01:47 37.41970 115.65673 36085 ft 473 kts 210°
2026-05-04 01:47 37.35916 115.62354 36082 ft 475 kts 209°
2026-05-04 01:48 37.29953 115.58947 36080 ft 473 kts 211°
2026-05-04 01:48 37.23988 115.55392 36077 ft 477 kts 211°
2026-05-04 01:49 37.17984 115.51799 36077 ft 476 kts 211°
2026-05-04 01:49 37.12039 115.48248 36076 ft 471 kts 211°
2026-05-04 01:50 37.06127 115.44674 36074 ft 471 kts 211°
2026-05-04 01:50 37.00217 115.41118 36074 ft 472 kts 211°
2026-05-04 01:51 36.94213 115.37743 36073 ft 473 kts 210°
2026-05-04 01:51 36.88274 115.34236 36071 ft 472 kts 212°
2026-05-04 01:52 36.82449 115.30556 36072 ft 472 kts 212°
2026-05-04 01:52 36.76560 115.26879 36070 ft 472 kts 211°
2026-05-04 01:53 36.70586 115.23443 36070 ft 473 kts 210°
2026-05-04 01:53 36.64601 115.20045 36070 ft 472 kts 212°
2026-05-04 01:54 36.58709 115.16397 36069 ft 474 kts 210°
2026-05-04 01:54 36.52696 115.13058 36070 ft 473 kts 210°
2026-05-04 01:55 36.46819 115.09500 36067 ft 473 kts 211°
2026-05-04 01:55 36.40818 115.06102 36069 ft 472 kts 211°
2026-05-04 01:56 36.34726 115.02966 36067 ft 478 kts 202°
2026-05-04 01:56 36.28113 115.01705 36069 ft 488 kts 186°
2026-05-04 01:57 36.21303 115.01790 36076 ft 490 kts 186°
2026-05-04 01:57 36.14477 115.01539 36080 ft 490 kts 189°
2026-05-04 01:58 36.07734 115.00931 36082 ft 488 kts 191°
2026-05-04 01:58 36.00979 115.00215 36085 ft 487 kts 191°
2026-05-04 01:59 35.94231 114.99509 36089 ft 487 kts 191°
2026-05-04 01:59 35.87480 114.98813 36093 ft 487 kts 191°
2026-05-04 02:00 35.80724 114.98120 36096 ft 487 kts 191°
2026-05-04 02:00 35.73966 114.97429 36100 ft 487 kts 191°
2026-05-04 02:01 35.67210 114.96739 36105 ft 487 kts 191°
2026-05-04 02:01 35.60453 114.96050 36109 ft 487 kts 191°
2026-05-04 02:02 35.53694 114.95362 36113 ft 487 kts 191°
2026-05-04 02:02 35.46928 114.94673 36118 ft 487 kts 191°
2026-05-04 02:03 35.40173 114.93985 36122 ft 487 kts 191°
2026-05-04 02:03 35.33413 114.93297 36126 ft 487 kts 191°
2026-05-04 02:04 35.26701 114.92614 36131 ft 487 kts 191°
2026-05-04 02:04 35.19936 114.91924 36135 ft 487 kts 191°
2026-05-04 02:05 35.13177 114.91236 36138 ft 487 kts 191°
2026-05-04 02:05 35.06406 114.90545 36142 ft 487 kts 191°
2026-05-04 02:06 34.99685 114.89859 36146 ft 487 kts 191°
2026-05-04 02:06 34.92924 114.89167 36148 ft 487 kts 191°
2026-05-04 02:07 34.86166 114.88473 36151 ft 487 kts 191°
2026-05-04 02:07 34.79405 114.87776 36154 ft 487 kts 191°
2026-05-04 02:08 34.72634 114.87076 36156 ft 487 kts 191°
2026-05-04 02:08 34.67013 114.86491 36158 ft 487 kts 191°
2026-05-04 02:09 34.61400 114.85903 36159 ft 487 kts 191°